User: anonymous   Login
Location: *
(32.8667°N, 13.1833°E)
Time: 08:45:07
(UTC+00:00)
Language:

Resurs 01 Rocket - Orbit

View from above orbital plane
View from above orbital plane
View from above satellite
View from above satellite

Ground track
Ground track

The orbit data is extracted from the following two-line orbital elements,

1 23343U 94074B   19261.18657053  .00000000  00000-0  74527-5 0  9993
2 23343  98.0428 310.9353 0005887 318.8105  89.9001 14.76790582338297
Epoch (UTC): 18 September 2019 04:28:39
Eccentricity: 0.0005887
inclination: 98.0428°
perigee height: 635 km
apogee height: 643 km
right ascension of ascending node: 310.9353°
argument of perigee: 318.8105°
revolutions per day: 14.76790582
mean anomaly at epoch: 89.9001°
orbit number at epoch: 33829

The dashed part of the orbit path shows where the satellite is in the earth's shadow,  

DLR